Regional Weather Roundup
Issued by NWS Albany, NY

Home | Current Version | Previous Version | Text Only | Print | Product List | Glossary On
Versions: 1 2 3 4 5 6 7 8 9 10 11 12 13 14 15 16 17 18 19 20 21 22 23 24 25 26 27 28 29 30 31 32 33 34 35 36 37 38 39 40 41 42 43 44 45 46 47 48
000
ASUS41 KALY 080210
RWRALY

NEW YORK STATE HOURLY WEATHER ROUNDUP
NATIONAL WEATHER SERVICE ALBANY NY
900 PM EST SUN FEB 07 2016

NOTE: "FAIR" INDICATES FEW OR NO CLOUDS BELOW 12,000 FEET WITH NO
SIGNIFICANT WEATHER AND/OR NO OBSTRUCTIONS TO VISIBILITY.

NYZ032-033-038>043-046>054-057>066-NYZ062>081-080300-
EAST


CITY           SKY/WX    TMP DP  RH WIND       PRES   REMARKS
ALBANY         CLOUDY    34  23  64 N7        30.04F WCI  28
GLENS FALLS    CLOUDY    28  21  75 N3        30.07F
POUGHKEEPSIE   CLOUDY    32  22  66 CALM      30.01R
MONTGOMERY     CLOUDY    29  23  78 CALM      29.99R
WHITE PLAINS   MOCLDY    37  21  52 NE3       29.97F
ISLIP          CLOUDY    37  29  72 NE10      29.96F WCI  30
NEW YORK CITY  CLOUDY    40  30  67 NE9       29.97F WCI  34
CENTRAL PARK   CLOUDY    39  27  62 E9        29.99F WCI  33
$$

NYZ005>009-017-018-044>046-055-056-080300-
CENTRAL


CITY           SKY/WX    TMP DP  RH WIND       PRES   REMARKS
FULTON         CLOUDY    38  24  57 E5        29.95F WCI  34
SYRACUSE       CLOUDY    31  24  75 E8        29.96S WCI  23
ROME           CLOUDY    34  22  61 E8        30.00F WCI  27
ELMIRA         CLOUDY    28  23  81 CALM      29.94S
BINGHAMTON     CLOUDY    37  20  50 SE5       29.92F WCI  33
MONTICELLO     CLOUDY    32  19  59 E5        29.97S WCI  27
$$

NYZ026>034-041>043-080300-
NORTH


CITY           SKY/WX    TMP DP  RH WIND       PRES   REMARKS
WATERTOWN      PTCLDY    31  25  78 NE9       29.98F WCI  23
FORT DRUM      NOT AVBL
MASSENA        CLOUDY    19   6  57 NE16      30.11F WCI   4
SARANAC LAKE   CLOUDY    20  16  84 NE8       29.99F WCI  10
PLATTSBURGH    CLOUDY    18   5  57 N8        30.15S WCI   8
$$

NYZ001>004-010>016-019>021-080300-
WEST


CITY           SKY/WX    TMP DP  RH WIND       PRES   REMARKS
NIAGARA FALLS  PTCLDY    41  26  55 SE7       29.85F
BUFFALO        MOCLDY    40  25  55 SE7       29.86F
DUNKIRK        CLEAR     43  26  51 S12       29.86F
JAMESTOWN      CLEAR     37  21  52 S8        29.85F WCI  31
WELLSVILLE     CLOUDY    36  23  59 S6        29.88F WCI  31
ROCHESTER      PTCLDY    39  26  59 SE7       29.90F WCI  34
PENN YAN       CLOUDY    30  22  72 CALM      29.92F
$$

             KEY
       WCI = WIND CHILL INDEX
       VSB = VISIBILITY
       HX  = HEAT INDEX
$$



USA.gov is the U.S. government's official web portal to all federal, state and local government web resources and services.